{"data":{"norad_id":67038,"intl_designator":"2025-294J","name":"STARLINK-35775","alt_names":[],"object_type":"PAYLOAD","status":"ACTIVE","operator":null,"country":"US","launch_date":"2025-12-11","launch_site_code":"AFETR","launch_vehicle":null,"mission":null,"orbit_class":"UNKNOWN","rcs_meters":null,"size_class":null,"mass_kg":null,"dimensions":null,"purposes":["comms"],"wikipedia_slug":null,"has_3d_model":false,"image_url":null,"decayed_at":null,"tle_current":{"epoch":"2026-05-25T04:54:21.743712Z","epoch_age_seconds":68100,"freshness":"FRESH","line1":"1 67038U 25294J   26145.20441833  .00020406  00000+0  74895-3 0  9996","line2":"2 67038  42.9992 325.7455 0001104  58.6358 301.4602 15.27582626 26517","mean_motion":15.27582626,"eccentricity":0.0001104,"inclination_deg":42.9992,"raan_deg":325.7455,"arg_perigee_deg":58.6358,"mean_anomaly_deg":301.4602,"bstar":0.00074895,"rev_number":2651,"period_min":94.266586663837,"perigee_km":482.28375878531,"apogee_km":483.79870693913,"semimajor_km":6861.1782328622,"source":"CELESTRAK","updated_at":"2026-05-25T13:38:21.437865Z"}}}